Weather History for Abilene Dyess, TX

Change the Weather History Date:

Saturday, April 13, 2013

  Actual Average Record
Temperature  
Mean Temperature 70 °F -  
Max Temperature 81 °F 74 °F 91 °F (2006)
Min Temperature 58 °F 51 °F 28 °F (1997)
Cooling Degree Days 4    
Growing Degree Days 20 (Base 50)    
Moisture  
Dew Point 39 °F    
Average Humidity 33    
Maximum Humidity 51    
Minimum Humidity 21    
Precipitation  
Precipitation 0.00 in - - ()
Sea Level Pressure  
Sea Level Pressure 29.73 in    
Wind  
Wind Speed 18 mph (SSE)    
Max Wind Speed 25 mph    
Max Gust Speed 29 mph    
Visibility 10 miles    
Events      
Averages and records for this station are not official NWS values.
T = Trace of Precipitation, MM = Missing Value Source: NWS Daily Summary

Daily Weather History Graph

Daily Weather History Graph

Search for Another Location

Airport:

Trip Planner

Search our weather history database for the weather conditions in past years. The results will help you decide how hot, cold, wet, or windy it might be!

Date:

Astronomy

Apr. 13, 2013 Rise Set
Actual Time 7:12 AM CDT 8:07 PM CDT
Civil Twilight 6:47 AM CDT 8:33 PM CDT
Nautical Twilight 6:17 AM CDT 9:02 PM CDT
Astronomical Twilight 5:46 AM CDT 9:33 PM CDT
Moon 9:14 AM CDT (4/13) 11:23 PM CDT (4/13)
Length of Visible Light 13h 46m
Length of Day
12h 55m
Waxing Crescent, 10% of the Moon is Illuminated
Apr 13
Waxing Crescent
Apr 18
First Quarter
Apr 25
Full
May 2
Last Quarter
May 9
New

Hourly Weather History & Observations

Time (CDT) Temp. Dew Point Humidity Pressure Visibility Wind Dir Wind Speed Gust Speed Precip Events Conditions
12:58 AM 64.6 °F 40.1 °F 41% 29.78 in 10.0 mi SSE 18.4 mph - N/A   Clear
1:58 AM 63.1 °F 40.5 °F 43% 29.76 in 10.0 mi SE 16.1 mph - N/A   Clear
2:58 AM 61.7 °F 41.2 °F 47% 29.75 in 10.0 mi SSE 18.4 mph - N/A   Clear
3:58 AM 62.4 °F 42.1 °F 47% 29.75 in 10.0 mi South 25.3 mph 28.8 mph N/A   Clear
4:58 AM 61.3 °F 39.2 °F 44% 29.76 in 10.0 mi South 20.7 mph 27.6 mph N/A   Clear
5:58 AM 59.7 °F 38.5 °F 45% 29.77 in 10.0 mi South 21.9 mph - N/A   Clear
6:58 AM 58.5 °F 35.6 °F 42% 29.77 in 10.0 mi South 20.7 mph - N/A   Clear
7:58 AM 58.3 °F 35.4 °F 42% 29.79 in 10.0 mi South 13.8 mph 23.0 mph N/A   Clear
8:58 AM 62.8 °F 34.9 °F 35% 29.81 in 10.0 mi South 19.6 mph 27.6 mph N/A   Clear
9:58 AM 66.0 °F 34.9 °F 32% 29.82 in 10.0 mi South 13.8 mph - N/A   Clear
10:58 AM 70.3 °F 33.8 °F 26% 29.80 in 10.0 mi South 20.7 mph 26.5 mph N/A   Clear
11:58 AM 73.2 °F 34.7 °F 24% 29.79 in 10.0 mi South 12.7 mph - N/A   Clear
12:58 PM 76.6 °F 35.6 °F 23% 29.77 in 10.0 mi SSE 19.6 mph 26.5 mph N/A   Partly Cloudy
1:58 PM 76.8 °F 35.2 °F 22% 29.74 in 10.0 mi SSE 16.1 mph - N/A   Partly Cloudy
2:58 PM 79.7 °F 36.1 °F 21% 29.71 in 10.0 mi South 18.4 mph 27.6 mph N/A   Clear
3:54 PM 80.6 °F 37.4 °F 21% 29.78 in 10.0 mi SSW 16.1 mph - N/A   Clear
3:58 PM 80.8 °F 37.8 °F 21% 29.67 in 10.0 mi South 16.1 mph 21.9 mph N/A   Clear
4:02 PM 80.6 °F 37.4 °F 21% 29.77 in 10.0 mi SSE 21.9 mph 26.5 mph N/A   Clear
4:03 PM 80.6 °F 37.4 °F 21% 29.77 in 10.0 mi SSE 21.9 mph 26.5 mph N/A   Clear
4:04 PM 80.6 °F 37.4 °F 21% 29.77 in 10.0 mi SSE 20.7 mph 26.5 mph N/A   Clear
4:58 PM 81.3 °F 39.0 °F 22% 29.65 in 10.0 mi SE 19.6 mph 24.2 mph N/A   Clear
5:58 PM 78.3 °F 38.3 °F 24% 29.64 in 10.0 mi SSE 18.4 mph - N/A   Mostly Cloudy
6:58 PM 75.4 °F 40.6 °F 29% 29.64 in 10.0 mi SSE 17.3 mph - N/A   Clear
7:58 PM 73.8 °F 41.7 °F 32% 29.63 in 10.0 mi SE 12.7 mph - N/A   Clear
8:58 PM 71.1 °F 43.9 °F 38% 29.62 in 10.0 mi SE 16.1 mph - N/A   Clear
9:58 PM 68.7 °F 45.0 °F 42% 29.63 in 10.0 mi SSE 21.9 mph - N/A   Clear
10:58 PM 66.4 °F 46.2 °F 48% 29.66 in 10.0 mi South 18.4 mph - N/A   Clear
11:58 PM 64.0 °F 45.3 °F 51% 29.66 in 10.0 mi South 11.5 mph - N/A   Clear